{"data":{"norad_id":63281,"intl_designator":"2025-053S","name":"STARLINK-33665","alt_names":[],"object_type":"PAYLOAD","status":"ACTIVE","operator":null,"country":"US","launch_date":"2025-03-15","launch_site_code":"AFETR","launch_vehicle":null,"mission":null,"orbit_class":"UNKNOWN","rcs_meters":null,"size_class":null,"mass_kg":null,"dimensions":null,"purposes":["comms"],"wikipedia_slug":null,"has_3d_model":false,"image_url":null,"decayed_at":null,"tle_current":{"epoch":"2026-09-20T13:40:02.678880Z","epoch_age_seconds":152803,"freshness":"FRESH","line1":"1 63281U 25053S   26263.56947545  .00008671  00000+0  32418-3 0  9991","line2":"2 63281  42.9948 220.6855 0000491 314.2920  45.7891 15.27585402 86008","mean_motion":15.27585402,"eccentricity":4.91e-5,"inclination_deg":42.9948,"raan_deg":220.6855,"arg_perigee_deg":314.292,"mean_anomaly_deg":45.7891,"bstar":0.00032418,"rev_number":8600,"period_min":94.266415358164,"perigee_km":482.69603711286,"apogee_km":483.36980399906,"semimajor_km":6861.169920556,"source":"CELESTRAK","updated_at":"2026-09-21T09:00:34.965335Z"}}}